SPEKTR-R (37755 NORAD) Tracking and Keplerian Element Data

This shows tracking and keplerian element data for the satellite.

Feedback or suggestion? Click here.




ElementValue
Catalog37755
NameSPEKTR-R
Epoch Orbit300
Epoch Day264.2
Epoch Year2018
RAAN113.368
Inclination51.588
Eccentricity0.8331057
Argument of Perigee181.994
Mean Anonmoly359.934
Mean Motion0.11829941
Decay Rate8.3E-07
L11 37755U 11037A 18264.20000000 .00000083 00000-0 00000+0 0 9992
L22 37755 51.5880 113.3680 8331057 181.9940 359.9340 0.11829941 3008



Live tracking and technical data element details for SPEKTR-R (NORAD 37755). SPEKTR-R can be tracked NOW for your location showing map with azimuth and elevation plus other details from your city location.







IsCatalogInMostPopularTable: catalog: 37755, numindb: 333
Update: records affected: 1



GetName: 37755 SPEKTR-R

Hit Count: updated at: Fri, 16 May 2025 11:13:58 GMT